Station BRHC3 - 8467150 - Bridgeport, CT Image indicating link to RSS feed of recent meteorological observations for station BRHC3


Conditions at BRHC3 as of
(7:18 am EDT)
1118 GMT on 04/14/2024:
     

Click on the graph icon in the table below to see a time series plot of the last five days of that observation.

5-day plot - Wind Direction Wind Direction (WDIR): W ( 270 deg true )
5-day plot - Wind Speed Wind Speed (WSPD): 1.0 kts
5-day plot - Wind Gust Wind Gust (GST): 6.0 kts
5-day plot - Atmospheric Pressure Atmospheric Pressure (PRES):29.88 in
5-day plot - Wind Speed at 10 Meters Wind Speed at 10 meters (WSPD10M): 1.9 kts
5-day plot - Wind Speed at 20 Meters Wind Speed at 20 meters (WSPD20M): 1.9 kts
5-day plot -  Wind Speed, Wind Gust and Atmospheric Pressure Combined plot of Wind Speed, Gust, and Air Pressure
NOS Water Level Observation Network Water Level
Previous observations
TIME
(EDT)
5-day plot - Wind Direction
WDIR
 
5-day plot - Wind Speed
WSPD
kts
5-day plot - Wind Gust
GST
kts
5-day plot - Wave Height
WVHT
ft
5-day plot - Dominant Wave Period
DPD
sec
5-day plot - Average Wave Period
APD
sec
5-day plot - Mean Wave Direction
MWD
 
5-day plot - Atmospheric Pressure
PRES
in
5-day plot - Pressure Tendency
PTDY
in
5-day plot - Air Temperature
ATMP
°F
5-day plot - Water Temperature
WTMP
°F
5-day plot - Dew Point
DEWP
°F
5-day plot - Salinity
SAL
psu
5-day plot - Visibility
VIS
nmi
5-day plot - Tide (above MLLW)
TIDE
ft
2024-04-14 07:12 amWSW 4.1 7.0----29.88-------
2024-04-14 07:06 amWSW 5.1 7.0----29.87-------
2024-04-14 07:00 am W 4.1 8.0----29.88+0.05 46.6-----
2024-04-14 06:54 am W 2.9 6.0----29.88- 46.4-----
2024-04-14 06:48 amWSW 2.9 6.0----29.88-------
2024-04-14 06:42 am W 2.9 5.1----29.87-------
2024-04-14 06:36 amWSW 1.9 4.1----29.86-------
2024-04-14 06:30 am W 4.1 5.1----29.86- 46.0-----
2024-04-14 06:24 am W 4.1 6.0----29.86- 46.0-----
2024-04-14 06:18 amWSW 5.1 7.0----29.86- 46.2-----
2024-04-14 06:12 amWSW 5.1 7.0----29.85- 45.9-----
2024-04-14 06:06 amWSW 7.0 8.9----29.85- 46.2-----
2024-04-14 06:00 am SW 4.1 6.0------ 46.2-----
2024-04-14 05:54 amWSW 2.9 5.1------ 46.4-----
2024-04-14 05:48 amWSW 1.9 4.1------ 46.2-----
2024-04-14 05:42 amWSW 1.9 4.1------ 46.4-----
2024-04-14 05:36 amWSW 1.9 4.1------ 46.4-----
2024-04-14 05:30 am SW 1.9 4.1----29.85-------
2024-04-14 05:24 amWSW 1.9 4.1----29.85-------
2024-04-14 05:18 am SW 1.9 5.1----29.84- 46.8-----
2024-04-14 05:12 amWSW 1.9 5.1----29.85- 46.8-----
2024-04-14 05:06 amWSW 2.9 6.0----29.85- 46.8-----
2024-04-14 05:00 amWSW 4.1 6.0----29.84+0.05 46.9-----
2024-04-14 04:54 amWSW 4.1 6.0----29.84- 46.9-----
2024-04-14 04:48 amWSW 5.1 7.0----29.84- 47.1-----
2024-04-14 04:42 amWSW 4.1 6.0----29.84- 47.1-----
2024-04-14 04:36 am SW 4.1 7.0----29.83- 47.5-----
2024-04-14 04:30 am SW 2.9 5.1----29.83- 47.5-----
2024-04-14 04:24 amWSW 4.1 7.0----29.83- 47.7-----
2024-04-14 04:18 am SW 4.1 5.1----29.83- 47.8-----
2024-04-14 04:12 am SW 2.9 5.1----29.84- 48.0-----
2024-04-14 04:06 am SW 2.9 6.0----29.83- 48.0-----
2024-04-14 04:00 am SW 2.9 5.1----29.83+0.05 48.0-----
2024-04-14 03:54 am SW 2.9 4.1----29.83- 48.0-----
2024-04-14 03:48 am SW 2.9 5.1----29.83- 48.2-----
2024-04-14 03:42 am W 1.9 4.1----29.83- 48.2-----
2024-04-14 03:36 amWSW 1.9 5.1----29.82- 48.2-----
2024-04-14 03:30 am W 1.9 8.0----29.82- 48.2-----
2024-04-14 03:24 amWSW 2.9 5.1----29.82- 48.2-----
2024-04-14 03:18 am W 2.9 8.9----29.82- 48.4-----
2024-04-14 03:12 amWSW 4.1 7.0----29.81- 48.4-----
2024-04-14 03:06 am W 4.1 8.0----29.81- 48.4-----
2024-04-14 03:00 amWSW 5.1 8.9----29.81+0.04 48.7-----
2024-04-14 02:54 am SW 2.9 8.0----29.81- 48.6-----
2024-04-14 02:48 am SW 5.1 7.0----29.80- 48.6-----
2024-04-14 02:42 amWSW 2.9 5.1----29.80- 48.7-----
2024-04-14 02:36 am W 2.9 7.0----29.80- 48.9-----
2024-04-14 02:30 am W 4.1 6.0----29.80- 48.9-----
2024-04-14 02:24 am W 4.1 5.1----29.80- 48.9-----
2024-04-14 02:18 am W 5.1 8.0----29.80- 49.1-----
2024-04-14 02:12 amWSW 6.0 8.9----29.80- 48.9-----
2024-04-14 02:06 am W 4.1 6.0----29.80- 48.9-----
2024-04-14 02:00 am- 0.0 9.9----29.80+0.04 49.1-----
2024-04-14 01:54 amWNW 1.9 6.0----29.80- 49.1-----
2024-04-14 01:48 am W 4.1 8.0----29.79- 49.3-----
2024-04-14 01:42 am W 6.0 9.9----29.79- 49.1-----
2024-04-14 01:36 amWNW 5.1 8.9----29.79- 49.3-----
2024-04-14 01:30 am W 4.1 8.9----29.79- 49.3-----
2024-04-14 01:24 amWSW 4.1 8.0----29.79- 49.3-----
2024-04-14 01:18 amWNW 2.9 7.0----29.79- 49.3-----
2024-04-14 01:12 am W 4.1 7.0----29.79- 49.3-----
2024-04-14 01:06 am W 4.1 7.0----29.78- 49.5-----
2024-04-14 01:00 amWNW 2.9 8.9----29.78+0.04 49.6-----
2024-04-14 12:54 am W 7.0 11.1----29.78- 49.6-----
2024-04-14 12:48 amWNW 2.9 8.9----29.78- 49.5-----
2024-04-14 12:42 amWNW 5.1 9.9----29.78- 49.6-----
2024-04-14 12:36 am NW 5.1 8.9----29.78- 49.6-----
2024-04-14 12:30 am W 4.1 8.0----29.78- 49.6-----
2024-04-14 12:24 am NW 5.1 9.9----29.78- 49.6-----
2024-04-14 12:18 am W 7.0 12.0----29.77- 49.8-----
2024-04-14 12:12 amWNW 5.1 15.9----29.77- 49.8-----
2024-04-14 12:06 amWNW 8.9 14.0----29.77- 49.8-----
2024-04-14 12:00 amWNW 6.0 11.1----29.77+0.04 49.6-----
2024-04-13 11:54 pmWNW 7.0 19.0----29.77- 49.6-----
2024-04-13 11:48 pmWNW 7.0 12.0----29.76- 49.5-----
2024-04-13 11:42 pmWNW 6.0 13.0----29.76- 49.5-----
2024-04-13 11:36 pmWNW 5.1 12.0----29.76- 49.5-----
2024-04-13 11:30 pm NW 7.0 12.0----29.76- 49.3-----
2024-04-13 11:24 pmWNW 6.0 14.0----29.76- 49.5-----
2024-04-13 11:18 pmWNW 4.1 9.9----29.76- 49.5-----
2024-04-13 11:12 pm NW 7.0 12.0----29.76- 49.5-----
2024-04-13 11:06 pm W 5.1 9.9----29.75- 49.5-----
2024-04-13 11:00 pmWNW 4.1 11.1----29.75+0.06 49.5-----
2024-04-13 10:54 pmWNW 7.0 12.0----29.75- 49.6-----
2024-04-13 10:48 pmWNW 4.1 15.0----29.75- 49.6-----
2024-04-13 10:42 pm W 5.1 9.9----29.75- 49.6-----
2024-04-13 10:36 pm W 4.1 14.0----29.75- 49.6-----
2024-04-13 10:30 pmWNW 6.0 12.0----29.75- 49.6-----
2024-04-13 10:24 pm NW 5.1 12.0----29.75- 49.6-----
2024-04-13 10:18 pmWNW 6.0 13.0----29.75- 49.6-----
2024-04-13 10:12 pmWNW 6.0 15.0----29.75- 49.6-----
2024-04-13 10:06 pmWNW 6.0 15.9----29.75- 49.6-----
2024-04-13 10:00 pmWNW 8.0 14.0----29.75+0.09 49.6-----
2024-04-13 09:54 pmWNW 6.0 13.0----29.75- 49.5-----
2024-04-13 09:48 pmWNW 11.1 15.9----29.74- 49.6-----
2024-04-13 09:42 pmWNW 7.0 12.0----29.74- 49.5-----
2024-04-13 09:36 pmWNW 7.0 17.1----29.74- 49.5-----
2024-04-13 09:30 pmWNW 8.0 18.1----29.74- 49.3-----
2024-04-13 09:24 pmWNW 9.9 18.1----29.74- 49.3-----
2024-04-13 09:18 pm NW 7.0 13.0----29.74- 49.1-----
2024-04-13 09:12 pmWNW 7.0 12.0----29.74- 49.1-----
2024-04-13 09:06 pmWNW 8.0 13.0----29.73- 49.1-----
2024-04-13 09:00 pmWNW 7.0 21.0----29.73+0.11 48.9-----
2024-04-13 08:54 pm NW 8.0 13.0----29.73- 48.7-----
2024-04-13 08:48 pm NW 7.0 15.9----29.73- 48.7-----
2024-04-13 08:42 pm W 8.0 12.0----29.72- 48.7-----
2024-04-13 08:36 pm NW 9.9 15.9----29.72- 48.6-----
2024-04-13 08:30 pmWNW 11.1 18.1----29.72- 48.6-----
2024-04-13 08:24 pmWNW 8.0 18.1----29.72- 48.4-----
2024-04-13 08:18 pm-------29.71- 48.4-----
2024-04-13 08:12 pm-------29.70- 48.4-----
2024-04-13 08:06 pm-------29.70- 48.2-----
2024-04-13 08:00 pm-------29.70+0.10 48.2-----
2024-04-13 07:54 pm-------29.69- 48.0-----
2024-04-13 07:48 pmWNW 8.0 14.0----29.69- 48.0-----
2024-04-13 07:42 pm NW 8.0 19.0----29.68- 48.0-----
2024-04-13 07:36 pmWNW 7.0 14.0----29.68- 48.2-----
2024-04-13 07:30 pmWNW 6.0 17.1----29.67- 48.4-----
2024-04-13 07:24 pm NW 8.0 15.0----29.67- 48.4-----
2024-04-13 07:00 pm NW 12.0 19.0----29.65+0.07 48.6-----
2024-04-13 06:54 pmWNW 9.9 15.9----29.65- 48.4-----
2024-04-13 06:48 pmWNW 9.9 18.1----29.65- 48.4-----
2024-04-13 06:42 pm W 8.0 18.1----29.64- 48.6-----
2024-04-13 06:36 pm NW 8.9 17.1----29.64- 48.6-----
2024-04-13 06:30 pmWNW 8.0 19.0----29.64- 48.6-----
2024-04-13 06:24 pmWNW 11.1 19.0----29.63- 48.6-----
2024-04-13 06:18 pm W 8.0 15.0----29.63- 48.4-----
2024-04-13 06:12 pm NW 11.1 18.1----29.62- 48.2-----
2024-04-13 06:06 pm W 5.1 20.0----29.62- 48.4-----
2024-04-13 06:00 pm W 7.0 19.0----29.62+0.06 48.4-----
2024-04-13 05:54 pmWNW 11.1 19.0----29.62- 48.2-----
2024-04-13 05:48 pmWSW 6.0 14.0----29.61- 48.6-----
2024-04-13 05:42 pmWNW 5.1 12.0----29.61- 48.6-----
2024-04-13 05:36 pmWNW 8.0 13.0----29.61- 48.4-----
2024-04-13 05:30 pmWNW 8.0 15.9----29.60- 48.2-----
2024-04-13 05:24 pmWNW 8.9 15.9----29.60- 47.8-----
2024-04-13 05:18 pmWNW 6.0 11.1----29.60- 47.7-----
2024-04-13 05:12 pmWNW 5.1 12.0----29.60- 47.3-----
2024-04-13 05:06 pm W 7.0 11.1----29.60- 47.1-----
2024-04-13 05:00 pmWNW 5.1 9.9----29.59+0.05 47.1-----
2024-04-13 04:54 pmWNW 4.1 13.0----29.59- 46.8-----
2024-04-13 04:48 pm--------- 46.6-----
2024-04-13 04:42 pm--------- 46.8-----
2024-04-13 04:36 pm--------- 47.1-----
2024-04-13 04:30 pm NW 7.0 19.0----29.59-------
2024-04-13 04:24 pmWNW 9.9 19.0----29.59-------
2024-04-13 04:18 pm W 8.0 15.0----29.59- 46.8-----
2024-04-13 04:12 pmWNW 7.0 13.0----29.59- 46.6-----
2024-04-13 04:06 pmWNW 8.0 14.0----29.58- 46.4-----
2024-04-13 04:00 pm NW 2.9 13.0----29.58+0.05 46.6-----
2024-04-13 03:54 pmWNW 8.0 14.0----29.59- 46.6-----
2024-04-13 03:48 pmWNW 6.0 13.0----29.59- 46.6-----
2024-04-13 03:42 pmWNW 12.0 22.0----29.59- 46.6-----
2024-04-13 03:36 pmWNW 8.0 18.1----29.58- 47.5-----
2024-04-13 03:30 pmWNW 12.0 15.0----29.58- 47.5-----
2024-04-13 03:24 pmWNW 8.9 21.0----29.58- 47.7-----
2024-04-13 03:18 pm W 13.0 25.1----29.57- 48.2-----
2024-04-13 03:12 pmWNW 11.1 18.1----29.57- 49.5-----
2024-04-13 03:06 pm W 12.0 20.0----29.57- 49.8-----
2024-04-13 03:00 pmWNW 13.0 24.1----29.56+0.04 49.6-----
2024-04-13 02:54 pmWNW 15.0 22.0----29.56- 50.0-----
2024-04-13 02:48 pmWNW 12.0 22.0----29.56-------
2024-04-13 02:42 pmWNW 11.1 20.0----29.55-------
2024-04-13 02:36 pm W 8.9 18.1----29.55-------
2024-04-13 02:30 pmWNW 15.0 22.0----29.55- 50.5-----
2024-04-13 02:24 pmWNW 8.9 18.1----29.55- 50.7-----
2024-04-13 02:18 pm-------29.55-------
2024-04-13 02:12 pm-------29.55-------
2024-04-13 02:06 pm-------29.54-------
2024-04-13 02:00 pmWNW 9.9 21.0----29.54+0.02 50.5-----
2024-04-13 01:54 pmWNW 7.0 17.1----29.54- 50.5-----
2024-04-13 01:48 pm W 7.0 11.1----29.54-------
2024-04-13 01:42 pmWNW 7.0 14.0----29.54-------
2024-04-13 01:36 pmWNW 7.0 12.0----29.54-------
2024-04-13 01:30 pm NW 8.0 22.9----29.55- 46.9-----
2024-04-13 01:24 pmWNW 12.0 22.9----29.54- 48.0-----
2024-04-13 01:18 pm NW 12.0 21.0----29.53- 50.7-----
2024-04-13 01:12 pm W 15.0 22.9----29.52- 50.7-----
2024-04-13 01:06 pm W 12.0 19.0----29.53- 50.2-----
2024-04-13 01:00 pm W 14.0 22.9----29.53+0.03 49.5-----
2024-04-13 12:54 pmWNW 8.0 15.9----29.53- 51.1-----
2024-04-13 12:48 pmWNW 7.0 22.0----29.53- 51.3-----
2024-04-13 12:42 pmWNW 14.0 20.0----29.52- 50.7-----
2024-04-13 12:36 pm W 12.0 22.0----29.52- 50.7-----
2024-04-13 12:30 pm W 9.9 17.1----29.52-------
2024-04-13 12:24 pmWNW 8.0 18.1----29.52-------
2024-04-13 12:18 pm W 15.0 21.0----29.52-------
2024-04-13 12:12 pm W 8.0 15.0----29.53-------
2024-04-13 12:06 pm W 11.1 18.1----29.52-------
2024-04-13 12:00 pmWNW 7.0 15.9----29.52+0.03 50.4-----
2024-04-13 11:54 am NW 8.0 17.1----29.52- 50.5-----
2024-04-13 11:48 am-------29.52-------
2024-04-13 11:42 am-------29.52-------
2024-04-13 11:36 am-------29.52-------
2024-04-13 11:30 am NW 6.0 9.9----29.52- 49.8-----
2024-04-13 11:24 am NW 7.0 17.1----29.52- 49.5-----
2024-04-13 11:18 amWNW 8.0 15.0----29.52- 50.7-----
2024-04-13 11:12 amWNW 8.9 15.0----29.52- 51.3-----
2024-04-13 11:06 am NW 4.1 11.1----29.52- 51.4-----
2024-04-13 11:00 am W 7.0 22.0----29.52- 50.4-----
2024-04-13 10:54 amWNW 8.9 19.0----29.52- 50.2-----
2024-04-13 10:48 am W 11.1 21.0----29.51- 50.9-----
2024-04-13 10:42 amWNW 7.0 14.0----29.52- 51.1-----
2024-04-13 10:36 am NW 4.1 14.0----29.52- 51.4-----
2024-04-13 10:30 am NW 11.1 17.1----29.52- 50.9-----
2024-04-13 10:24 amWNW 8.0 17.1----29.52- 50.7-----
2024-04-13 10:18 am W 13.0 19.0----29.51- 50.2-----
2024-04-13 10:12 amWNW 5.1 20.0----29.51- 50.4-----
2024-04-13 10:06 am W 8.9 14.0----29.50- 50.7-----
2024-04-13 10:00 amWSW 7.0 17.1----29.50+0.05 50.2-----
2024-04-13 09:54 am W 6.0 12.0----29.50- 50.4-----
2024-04-13 09:48 am W 8.9 13.0----29.50- 50.0-----
2024-04-13 09:42 amWNW 8.0 17.1----29.50- 49.5-----
2024-04-13 09:36 amWNW 7.0 13.0----29.50- 48.9-----
2024-04-13 09:30 amWNW 8.0 17.1----29.50- 48.0-----
2024-04-13 09:24 am W 6.0 19.0----29.50- 47.3-----
2024-04-13 09:18 amWNW 11.1 21.0----29.50- 47.7-----
2024-04-13 09:12 am W 8.9 21.0----29.49- 50.0-----
2024-04-13 09:06 amWNW 7.0 15.9----29.49- 50.0-----
2024-04-13 09:00 amWNW 6.0 12.0----29.49+0.06------
2024-04-13 08:54 am W 8.9 15.0----29.49-------
2024-04-13 08:48 am W 11.1 18.1----29.48- 48.6-----
2024-04-13 08:42 am W 6.0 17.1----29.49- 49.3-----
2024-04-13 08:36 am W 7.0 13.0----29.48- 49.8-----
2024-04-13 08:30 am W 5.1 13.0----29.48- 49.8-----
2024-04-13 08:24 am NW 8.9 18.1----29.48- 50.0-----
2024-04-13 08:18 am W 11.1 14.0----29.48- 49.8-----
2024-04-13 08:12 am W 4.1 14.0----29.47- 50.0-----
2024-04-13 08:06 am W 8.0 15.9----29.47- 49.8-----
2024-04-13 08:00 am W 8.9 15.0------------
2024-04-13 07:54 amWNW 11.1 17.1------------